Weather in Sharanga

Russia / Nizhny Novgorod Oblast'     57°10′37″N   46°32′39″E
В апреле 2022 года жителям России запретили посещать сайт meteo.paraplan.net по решению Генеральной прокуратуры. Аудитория сайта уменьшилась в 10 раз. Владельцы сайта не видят смысла в поддержке погодного сервера в таких условиях. Сайт будет закрыт в октябре.
temp.,
°C
wind,
m/s
gust,
m/s
humid.,
%
clouds,
%
prec.,
mm/h
press.,
hPa
HPBL,
m
25 september, sun
sun2500:00+10s2670100 0.0 1007253
03:00+9sse377799 0.0 1008200
06:00+7se2488100 0.0 100877
09:00+10se3474100 0.0 1008294
12:00+11ese3568100 0.0 1008585
15:00+11e3471100 0.1 1007518
18:00+8ne2590100 0.3 1006230
21:00+8nw3794100 3.1 1003430
26 september, mon
mon2600:00+7wnw51094100 6.1 1001669
03:00+7wnw4896100 8.9 999670
06:00+7w2497100 2.6 1000365
09:00+7ssw4796100 4.1 1002524
12:00+8s4790100 0.2 1005581
15:00+9se3687100 0.3 1007540
18:00+7se249536 0.3 101079
21:00+7sse239578 0.3 101184
27 september, tue
tue2700:00+6se2295100 0.0 101321
03:00+7e2495100 0.0 1014125
06:00+7e3597100 0.0 1015241
09:00+7e3693100 0.0 1017313
12:00+9ese3482100 0.0 1018663
15:00+8e458393 0.0 1018537
18:00+6e489089 0.0 1019400
21:00+6e379098 0.0 1020343
28 september, wed
wed2800:00+5e3691100 0.0 1020295
03:00+4e389374 0.0 1020327
06:00+5e498597 0.0 1020435
09:00+4e51173100 0.0 1020470
12:00+7e61063100 0.0 1019692
15:00+8e71061100 0.0 1019970
18:00+6e71359100 0.0 1019881
21:00+6ese81556100 0.0 1018843
29 september, thu
thu2900:00+3ese81678100 0.6 1018754
03:00+2e81787100 1.5 1017687
06:00+2e81789100 1.2 1017682
09:00+1e81787100 2.8 1018681
12:00+1e71793100 2.8 1019598
15:00+3ese71592100 4.4 1020704
18:00+4ese61491100 0.3 1022722
21:00+4ese61391100 0.3 1023705